Home   Weather   Galway   Past weeks
Flag for Ireland

Past Weather in Galway, Ireland — Yesterday and Last 2 Weeks

Now
52 °F

Drizzle. Mostly cloudy.


Feels Like: 46 °F
Forecast: N/A
Wind: 21 mph from Southwest

Location: Shannon Airport

Current Time: Dec 5, 2019 at 7:39:40 pm

Latest Report: Dec 5, 2019 at 7:00 pm


Visibility: 6 mi

Pressure: 29.74 "Hg

Humidity: 100%

Dew Point: 52 °F

Location of GalwayLocation

Past Weather in Galway — Graph

°F

Galway Temperature Yesterday

Maximum temperature yesterday: 50 °F (at 12:30 pm)
Minimum temperature yesterday: 41 °F (at 10:30 pm)
Average temperature yesterday: 46 °F

High & Low Weather Summary for the Past Weeks

 TemperatureHumidityPressure
High54 °F (Nov 26, 12:00 pm)100% (Nov 21, 1:30 am)30.54 "Hg (Nov 21, 1:30 am)
Low28 °F (Dec 2, 4:00 am)71% (Nov 29, 1:30 pm)28.71 "Hg (Nov 26, 11:30 am)
Average44 °F90%29.69 "Hg
* Reported Nov 20 6:00 pm — Dec 5 6:30 pm, Galway. Weather by CustomWeather, © 2019

Note: Actual official high and low records may vary slightly from our data, if they occured in-between our weather recording intervals... More about our weather records

Galway Weather History for the Previous 24 Hours

Scroll right to see more
 ConditionsComfort  
Time TempWeatherWind HumidityBarometerVisibility
6:30 pm
Thu, Dec 5
52 °FDrizzle. Mostly cloudy.21 mph94%29.77 "Hg6 mi
6:00 pm52 °FLight rain. Mostly cloudy.22 mph94%29.74 "Hg6 mi
5:30 pm52 °FDrizzle. Mostly cloudy.21 mph94%29.74 "Hg2 mi
5:00 pm52 °FDrizzle. Overcast.21 mph94%29.77 "Hg1 mi
4:30 pm52 °FPassing clouds.22 mph94%29.77 "Hg1 mi
4:00 pm52 °FDrizzle. Partly sunny.24 mph94%29.77 "Hg4 mi
3:30 pm54 °FDrizzle. Broken clouds.26 mph88%29.77 "Hg5 mi
3:00 pm54 °FDrizzle. More clouds than sun.23 mph88%29.77 "Hg5 mi
2:30 pm54 °FMore clouds than sun.23 mph88%29.77 "HgN/A
2:00 pm54 °FLow clouds.21 mph88%29.77 "HgN/A
1:30 pm54 °FLow clouds.20 mph94%29.80 "HgN/A
1:00 pm52 °FDrizzle. Low clouds.15 mph94%29.80 "Hg3 mi
12:30 pm52 °FDrizzle. More clouds than sun.15 mph94%29.83 "Hg4 mi
12:00 pm52 °FDrizzle. Low clouds.15 mph94%29.83 "Hg5 mi
11:30 am52 °FLow clouds.16 mph88%29.86 "HgN/A
11:00 am50 °FDrizzle. Mostly cloudy.17 mph94%29.89 "Hg4 mi
10:30 am50 °FDrizzle. More clouds than sun.15 mph88%29.89 "Hg6 mi
10:00 am50 °FMostly cloudy.15 mph88%29.89 "HgN/A
9:30 am50 °FDrizzle. Mostly cloudy.15 mph82%29.92 "Hg2 mi
9:00 am50 °FLight rain. More clouds than sun.14 mph76%29.92 "HgN/A
8:30 am48 °FMostly cloudy.10 mph82%29.92 "HgN/A
8:00 am46 °FLight rain. Passing clouds.9 mph87%29.95 "HgN/A
7:30 am46 °FPassing clouds.10 mph82%29.95 "HgN/A
7:00 am46 °FPassing clouds.12 mph82%29.98 "HgN/A
6:30 am46 °FPassing clouds.12 mph82%29.98 "HgN/A
6:00 am46 °FPartly cloudy.12 mph82%29.98 "HgN/A
5:30 am46 °FPartly cloudy.12 mph82%30.01 "HgN/A
5:00 am46 °FPassing clouds.13 mph82%30.01 "HgN/A
4:30 am45 °FPassing clouds.10 mph87%30.01 "HgN/A
4:00 am45 °FPassing clouds.9 mph87%30.04 "HgN/A
3:30 am45 °FPassing clouds.10 mph87%30.04 "HgN/A
3:00 am43 °FPassing clouds.7 mph87%30.04 "HgN/A
2:30 am43 °FPassing clouds.7 mph87%30.04 "HgN/A
2:00 am43 °FPassing clouds.8 mph87%30.07 "HgN/A
1:30 am45 °FPassing clouds.10 mph81%30.07 "HgN/A
1:00 am45 °FPartly cloudy.9 mph81%30.07 "HgN/A
12:30 am45 °FPartly cloudy.10 mph81%30.09 "HgN/A
12:00 am45 °FPartly cloudy.12 mph81%30.09 "HgN/A
11:30 pm
Wed, Dec 4
43 °FPassing clouds.9 mph87%30.09 "HgN/A
11:00 pm41 °FPassing clouds.7 mph93%30.09 "HgN/A
10:30 pm41 °FPassing clouds.7 mph93%30.09 "HgN/A
10:00 pm43 °FPassing clouds.9 mph87%30.09 "HgN/A
9:30 pm43 °FPartly cloudy.8 mph87%30.09 "HgN/A
9:00 pm43 °FPassing clouds.10 mph93%30.09 "HgN/A
8:30 pm43 °FPassing clouds.10 mph93%30.09 "HgN/A
8:00 pm45 °FPassing clouds.8 mph87%30.09 "HgN/A
7:30 pm45 °FPassing clouds.12 mph87%30.09 "HgN/A
7:00 pm45 °FPassing clouds.12 mph87%30.07 "HgN/A
Weather by CustomWeather, © 2019

See weather overview

Advertising